Tracking 23764 objects as of 16-Oct-2021
HD Live streaming from Space Station
objects crossing your sky now

IRIDIUM 33 DEB

Track IRIDIUM 33 DEB now!
10-day predictions


NORAD ID: 35802
Int'l Code: 1997-051SL
Perigee: 679.6 km
Apogee: 802.2 km
Inclination: 86.5 °
Period: 99.5 minutes
Semi major axis: 7111 km
RCS: 0.0126 m2 (small)
Launch date: September 14, 1997
Source: United States (US)
Launch site: TYURATAM MISSILE AND SPACE COMPLEX (TTMTR)

Note: This is SATELLITE DEBRIS
aabbcc
Your satellite tracking list
Your tracking list is empty




NASA's NSSDC Master Catalog

Two Line Element Set (TLE):
1 35802U 97051SL  21289.02327614  .00005843  00000-0  15118-2 0  9995
2 35802  86.4551  34.2222 0086206 178.1152 182.0395 14.47514078652081
Source of the keplerian elements: AFSPC